Home > Time Zones > World Clock > Weather > U.S.A. > Gary > Past weeks

Flag for U.S.A. Weather past 2 weeks in Gary, Indiana, U.S.A.

Now
73 °F

Mostly cloudy.


Feels Like: 71 °F
Forecast: 70 / 80 °F
Wind: 14 mph from South

Location: Porter County Municipal Airport

Current Time: Sep 1, 2014 at 9:04:39 AM

Latest Report: Sep 1, 2014 at 7:53 AM


Visibility: 7 mi

Pressure: 29.81 "Hg

Humidity: 90%

Dew point: 70 °F

Location of GaryLocation

Historic Weather in Gary — Graph

°F

Gary temperature yesterday

Maximum temperature yesterday: 83 °F (at 1:53 PM)
Minimum temperature yesterday: 66 °F (at 3:53 AM)
Average temperature yesterday: 73 °F

Past Weeks' High & Low Weather Summary

 TemperatureHumidityPressure
High88 °F (Aug 25, 1:53 PM)100% (Aug 21, 5:55 PM)30.14 "Hg (Aug 21, 5:55 PM)
Low58 °F (Aug 28, 5:53 AM)46% (Aug 20, 3:53 PM)29.73 "Hg (Aug 19, 2:53 PM)
Average73 °F84%29.96 "Hg
* Reported Aug 17 7:53 AM — Sep 1 7:53 AM, Gary, Weather by CustomWeather, © 2014

Note: Actual official high and low records may vary slightly from our data, if they occured in-between our weather recording intervals... More about our weather records

Advertising

Gary weather history for previous 24 hours

 ConditionsComfort  
Time TempWeatherWind HumidityBarometerVisibility
7:53 AM
Sep 1
73 °FMostly cloudy.14 mph90%29.81 "Hg7 mi
6:53 AM72 °FFog.10 mph93%29.83 "Hg6 mi
5:53 AM71 °FLow clouds.9 mph96%29.83 "Hg7 mi
4:53 AM71 °FFog.6 mph93%29.84 "Hg6 mi
3:53 AM71 °FClear.6 mph93%29.86 "Hg9 mi
2:53 AM71 °FClear.7 mph93%29.86 "Hg9 mi
1:53 AM72 °FClear.7 mph91%29.88 "Hg9 mi
12:53 AM71 °FClear.7 mph93%29.90 "Hg7 mi
11:53 PM
Aug 31
71 °FClear.6 mph93%29.90 "Hg8 mi
10:53 PM72 °FClear.3 mph91%29.90 "Hg10 mi
9:53 PM73 °FClear.5 mph88%29.88 "Hg10 mi
8:53 PM74 °FClear.5 mph82%29.90 "Hg10 mi
7:53 PM75 °FClear.3 mph79%29.91 "Hg10 mi
6:53 PM80 °FSunny.6 mph67%29.91 "Hg10 mi
5:53 PM82 °FSunny.10 mph58%29.91 "Hg10 mi
4:53 PM83 °FSunny.9 mph57%29.91 "Hg10 mi
3:53 PM83 °FSunny.10 mph59%29.92 "Hg10 mi
2:53 PM83 °FScattered clouds.12 mph61%29.93 "Hg10 mi
1:53 PM83 °FScattered clouds.9 mph61%29.94 "Hg10 mi
12:53 PM81 °FBroken clouds.8 mph69%29.95 "Hg10 mi
11:53 AM79 °FPassing clouds.5 mph72%29.96 "Hg10 mi
10:53 AM75 °FMostly cloudy.7 mph85%29.96 "Hg10 mi
9:53 AM72 °FLow clouds.6 mph93%29.97 "Hg7 mi
Weather by CustomWeather, © 2014

See weather overviewHow to use our weather pages